User: anonymous   Login
Location: �perlecques
(50.8057°N, 2.1521°E)
Time: 22:06:42
(UTC+00:00)
Language:

AO-91 - Orbit

View from above orbital plane
View from above orbital plane
View from above satellite
View from above satellite

Ground track
Ground track

The orbit data is extracted from the following two-line orbital elements,

1 43017U 17073E   23089.85038293  .00013384  00000-0  95176-3 0  9993
2 43017  97.6419 337.2955 0236318 328.1183  30.5908 14.84935704289555
Epoch (UTC): 30 March 2023 20:24:33
Eccentricity: 0.0236318
inclination: 97.6419°
perigee height: 448 km
apogee height: 779 km
right ascension of ascending node: 337.2955°
argument of perigee: 328.1183°
revolutions per day: 14.84935704
mean anomaly at epoch: 30.5908°
orbit number at epoch: 28955

The dashed part of the orbit path shows where the satellite is in the earth's shadow,  

DLR